Time,TemperatureF,DewpointF,PressureIn,WindDirection,WindDirectionDegrees,WindSpeedMPH,WindSpeedGustMPH,Humidity,HourlyPrecipIn,Conditions,Clouds,dailyrainin,SolarRadiationWatts/m^2,SoftwareType,DateUTC
2013-03-06 00:01:00,48.7,45.9,29.78,SSW,204,13.0,34.0,90,0.03,,,0.09,0.0,meteohub,2013-03-06 08:01:00,
2013-03-06 00:06:00,48.7,45.9,29.78,SSW,195,16.0,36.0,90,0.04,,,0.10,0.0,meteohub,2013-03-06 08:06:00,
2013-03-06 00:11:00,48.7,45.9,29.78,SSW,202,19.0,36.0,90,0.04,,,0.10,0.0,meteohub,2013-03-06 08:11:00,
2013-03-06 00:16:00,48.7,45.9,29.78,SSE,168,9.0,33.0,90,0.04,,,0.10,0.0,meteohub,2013-03-06 08:16:00,
2013-03-06 00:21:00,48.7,45.9,29.79,South,186,21.0,33.0,90,0.04,,,0.10,0.0,meteohub,2013-03-06 08:21:00,
2013-03-06 00:26:00,48.7,45.9,29.78,South,190,16.0,31.0,90,0.03,,,0.10,0.0,meteohub,2013-03-06 08:26:00,
2013-03-06 00:31:00,48.9,46.0,29.79,South,184,16.0,31.0,90,0.02,,,0.10,0.0,meteohub,2013-03-06 08:31:00,
2013-03-06 00:36:00,49.1,46.0,29.79,SSE,166,19.0,33.0,89,0.02,,,0.10,0.0,meteohub,2013-03-06 08:36:00,
2013-03-06 00:41:00,48.9,45.9,29.79,SSW,192,22.0,33.0,89,0.01,,,0.10,0.0,meteohub,2013-03-06 08:41:00,
2013-03-06 00:46:00,48.7,45.9,29.80,South,188,19.0,33.0,90,0.02,,,0.11,0.0,meteohub,2013-03-06 08:46:00,
2013-03-06 00:51:00,48.7,45.9,29.80,South,175,17.0,34.0,90,0.02,,,0.11,0.0,meteohub,2013-03-06 08:51:00,
2013-03-06 00:56:00,48.7,46.2,29.79,SSW,212,12.0,34.0,91,0.02,,,0.11,0.0,meteohub,2013-03-06 08:56:00,
2013-03-06 01:01:00,48.7,46.2,29.79,SSW,206,9.0,34.0,91,0.03,,,0.13,0.0,meteohub,2013-03-06 09:01:00,
2013-03-06 01:06:00,48.7,46.6,29.79,West,267,15.0,33.0,92,0.05,,,0.13,0.0,meteohub,2013-03-06 09:06:00,
2013-03-06 01:11:00,48.7,46.8,29.79,SW,218,17.0,33.0,93,0.06,,,0.16,0.0,meteohub,2013-03-06 09:11:00,
2013-03-06 01:16:00,48.9,47.3,29.79,SSW,206,21.0,30.0,94,0.06,,,0.16,0.0,meteohub,2013-03-06 09:16:00,
2013-03-06 01:21:00,49.6,47.7,29.79,WSW,240,19.0,33.0,93,0.06,,,0.16,0.0,meteohub,2013-03-06 09:21:00,
2013-03-06 01:26:00,49.6,47.7,29.79,WNW,288,11.0,33.0,93,0.06,,,0.16,0.0,meteohub,2013-03-06 09:26:00,
2013-03-06 01:31:00,49.8,47.7,29.79,SSW,213,11.0,33.0,92,0.06,,,0.16,0.0,meteohub,2013-03-06 09:31:00,
2013-03-06 01:36:00,49.8,47.7,29.80,SSW,213,5.0,28.0,92,0.06,,,0.16,0.0,meteohub,2013-03-06 09:36:00,
2013-03-06 01:41:00,49.8,47.8,29.79,SW,234,13.0,28.0,93,0.06,,,0.16,0.0,meteohub,2013-03-06 09:41:00,
2013-03-06 01:46:00,50.0,48.0,29.79,SSW,205,16.0,28.0,93,0.05,,,0.16,0.0,meteohub,2013-03-06 09:46:00,
2013-03-06 01:51:00,50.4,48.7,29.80,WSW,240,14.0,26.0,94,0.05,,,0.16,0.0,meteohub,2013-03-06 09:51:00,
2013-03-06 01:56:00,49.6,46.6,29.80,SW,229,16.0,31.0,89,0.07,,,0.19,0.0,meteohub,2013-03-06 09:56:00,
2013-03-06 02:01:00,48.7,46.6,29.80,SW,234,13.0,31.0,92,0.08,,,0.21,0.0,meteohub,2013-03-06 10:01:00,
2013-03-06 02:06:00,48.7,46.8,29.81,SW,232,18.0,31.0,93,0.06,,,0.21,0.0,meteohub,2013-03-06 10:06:00,
2013-03-06 02:11:00,48.9,47.3,29.81,WSW,243,24.0,29.0,94,0.05,,,0.21,0.0,meteohub,2013-03-06 10:11:00,
2013-03-06 02:16:00,48.9,46.9,29.81,SW,234,20.0,29.0,93,0.05,,,0.21,0.0,meteohub,2013-03-06 10:16:00,
2013-03-06 02:21:00,49.1,46.9,29.81,SW,225,26.0,29.0,92,0.05,,,0.21,0.0,meteohub,2013-03-06 10:21:00,
2013-03-06 02:26:00,49.5,47.5,29.81,SW,219,13.0,29.0,93,0.05,,,0.21,0.0,meteohub,2013-03-06 10:26:00,
2013-03-06 02:31:00,49.6,48.0,29.81,SSW,213,8.0,27.0,94,0.06,,,0.22,0.0,meteohub,2013-03-06 10:31:00,
2013-03-06 02:36:00,50.0,48.4,29.81,West,259,13.0,30.0,94,0.06,,,0.22,0.0,meteohub,2013-03-06 10:36:00,
2013-03-06 02:41:00,50.2,48.2,29.81,West,261,16.0,30.0,93,0.06,,,0.22,0.0,meteohub,2013-03-06 10:41:00,
2013-03-06 02:46:00,50.0,48.0,29.81,SW,236,14.0,30.0,93,0.06,,,0.22,0.0,meteohub,2013-03-06 10:46:00,
2013-03-06 02:51:00,49.8,46.9,29.81,WSW,240,17.0,27.0,90,0.05,,,0.22,0.0,meteohub,2013-03-06 10:51:00,
2013-03-06 02:56:00,49.6,46.6,29.81,WSW,257,18.0,30.0,89,0.02,,,0.22,0.0,meteohub,2013-03-06 10:56:00,
2013-03-06 03:01:00,49.6,46.6,29.81,WSW,257,26.0,30.0,89,0.01,,,0.22,0.0,meteohub,2013-03-06 11:01:00,
2013-03-06 03:06:00,49.6,46.6,29.81,SW,219,16.0,30.0,89,0.01,,,0.22,0.0,meteohub,2013-03-06 11:06:00,
2013-03-06 03:11:00,49.8,46.9,29.81,West,277,14.0,27.0,90,0.01,,,0.22,0.0,meteohub,2013-03-06 11:11:00,
2013-03-06 03:16:00,49.6,47.1,29.81,SW,223,11.0,27.0,91,0.01,,,0.22,0.0,meteohub,2013-03-06 11:16:00,
2013-03-06 03:21:00,49.8,46.9,29.81,SSW,196,16.0,25.0,90,0.01,,,0.22,0.0,meteohub,2013-03-06 11:21:00,
2013-03-06 03:26:00,49.8,46.9,29.81,SW,215,18.0,25.0,90,0.01,,,0.22,0.0,meteohub,2013-03-06 11:26:00,
2013-03-06 03:31:00,49.8,46.8,29.82,WSW,239,24.0,25.0,89,0.00,,,0.22,0.0,meteohub,2013-03-06 11:31:00,
2013-03-06 03:36:00,49.8,46.4,29.82,WSW,244,4.0,28.0,88,0.00,,,0.22,0.0,meteohub,2013-03-06 11:36:00,
2013-03-06 03:41:00,49.8,46.8,29.82,West,263,10.0,28.0,89,0.00,,,0.22,0.0,meteohub,2013-03-06 11:41:00,
2013-03-06 03:46:00,49.8,47.3,29.83,SSW,197,22.0,28.0,91,0.00,,,0.22,0.0,meteohub,2013-03-06 11:46:00,
2013-03-06 03:51:00,49.8,46.8,29.83,West,259,20.0,33.0,89,0.00,,,0.22,0.0,meteohub,2013-03-06 11:51:00,
2013-03-06 03:56:00,49.8,46.8,29.83,SW,230,14.0,33.0,89,0.00,,,0.22,0.0,meteohub,2013-03-06 11:56:00,
2013-03-06 04:01:00,49.8,46.8,29.83,SW,234,11.0,33.0,89,0.00,,,0.22,0.0,meteohub,2013-03-06 12:01:00,
2013-03-06 04:06:00,49.8,46.8,29.84,WSW,241,16.0,27.0,89,0.00,,,0.22,0.0,meteohub,2013-03-06 12:06:00,
2013-03-06 04:11:00,49.6,45.9,29.84,WSW,241,19.0,26.0,87,0.00,,,0.22,0.0,meteohub,2013-03-06 12:11:00,
2013-03-06 04:16:00,49.3,45.3,29.84,West,273,9.0,30.0,86,0.00,,,0.22,0.0,meteohub,2013-03-06 12:16:00,
2013-03-06 04:21:00,49.1,45.1,29.85,West,274,10.0,30.0,86,0.00,,,0.22,0.0,meteohub,2013-03-06 12:21:00,
2013-03-06 04:26:00,48.9,45.1,29.85,South,190,5.0,23.0,87,0.00,,,0.22,0.0,meteohub,2013-03-06 12:26:00,
2013-03-06 04:32:00,48.7,45.0,29.85,WNW,284,2.0,20.0,87,0.00,,,0.22,0.0,meteohub,2013-03-06 12:32:00,
2013-03-06 04:36:00,48.6,45.1,29.86,WSW,242,12.0,19.0,88,0.00,,,0.22,0.0,meteohub,2013-03-06 12:36:00,
2013-03-06 04:42:00,48.6,44.8,29.86,WSW,242,9.0,22.0,87,0.00,,,0.22,0.0,meteohub,2013-03-06 12:42:00,
2013-03-06 04:46:00,48.4,44.8,29.86,SW,227,9.0,22.0,87,0.00,,,0.22,0.0,meteohub,2013-03-06 12:46:00,
2013-03-06 04:51:00,48.0,44.1,29.86,West,262,7.0,22.0,86,0.00,,,0.22,0.0,meteohub,2013-03-06 12:51:00,
2013-03-06 04:57:00,48.0,44.1,29.86,WNW,291,9.0,17.0,86,0.00,,,0.22,0.0,meteohub,2013-03-06 12:57:00,
2013-03-06 05:02:00,48.0,44.1,29.87,West,259,5.0,20.0,86,0.00,,,0.22,0.0,meteohub,2013-03-06 13:02:00,
2013-03-06 05:07:00,47.8,43.9,29.87,SW,236,8.0,20.0,86,0.00,,,0.22,0.0,meteohub,2013-03-06 13:07:00,
2013-03-06 05:12:00,47.8,43.9,29.87,WSW,248,12.0,21.0,86,0.00,,,0.22,0.0,meteohub,2013-03-06 13:12:00,
2013-03-06 05:17:00,47.8,43.9,29.87,SSW,209,5.0,21.0,86,0.00,,,0.22,0.0,meteohub,2013-03-06 13:17:00,
2013-03-06 05:22:00,47.8,43.5,29.87,West,259,18.0,21.0,85,0.00,,,0.22,0.0,meteohub,2013-03-06 13:22:00,
2013-03-06 05:27:00,47.8,43.9,29.87,SW,223,11.0,21.0,86,0.00,,,0.22,0.0,meteohub,2013-03-06 13:27:00,
2013-03-06 05:32:00,47.8,43.9,29.87,SW,225,15.0,21.0,86,0.00,,,0.22,0.0,meteohub,2013-03-06 13:32:00,
2013-03-06 05:37:00,47.8,43.5,29.87,SW,223,8.0,23.0,85,0.00,,,0.22,0.0,meteohub,2013-03-06 13:37:00,
2013-03-06 05:42:00,47.7,43.3,29.88,WSW,246,11.0,23.0,85,0.00,,,0.22,0.0,meteohub,2013-03-06 13:42:00,
2013-03-06 05:47:00,47.7,43.3,29.87,WSW,246,4.0,23.0,85,0.00,,,0.22,0.0,meteohub,2013-03-06 13:47:00,
2013-03-06 05:52:00,47.5,43.2,29.87,West,263,5.0,20.0,85,0.00,,,0.22,0.0,meteohub,2013-03-06 13:52:00,
2013-03-06 05:57:00,47.5,43.2,29.87,WSW,248,9.0,20.0,85,0.00,,,0.22,0.0,meteohub,2013-03-06 13:57:00,
2013-03-06 06:02:00,47.5,43.2,29.88,SSW,212,9.0,18.0,85,0.00,,,0.22,0.0,meteohub,2013-03-06 14:02:00,
2013-03-06 06:07:00,47.7,43.7,29.88,SW,236,5.0,20.0,86,0.00,,,0.22,0.0,meteohub,2013-03-06 14:07:00,
2013-03-06 06:12:00,47.7,43.7,29.88,WNW,288,9.0,20.0,86,0.00,,,0.22,0.0,meteohub,2013-03-06 14:12:00,
2013-03-06 06:17:00,47.7,43.7,29.88,WSW,238,10.0,18.0,86,0.00,,,0.22,0.0,meteohub,2013-03-06 14:17:00,
2013-03-06 06:22:00,47.5,43.5,29.88,WSW,246,9.0,18.0,86,0.00,,,0.22,0.0,meteohub,2013-03-06 14:22:00,
2013-03-06 06:27:00,47.5,43.2,29.89,SW,228,6.0,18.0,85,0.00,,,0.22,0.0,meteohub,2013-03-06 14:27:00,
2013-03-06 06:32:00,47.5,43.2,29.89,West,262,10.0,18.0,85,0.00,,,0.22,5.0,meteohub,2013-03-06 14:32:00,
2013-03-06 06:37:00,47.5,43.2,29.89,SW,232,5.0,19.0,85,0.00,,,0.22,7.0,meteohub,2013-03-06 14:37:00,
2013-03-06 06:42:00,47.5,43.2,29.89,WSW,240,11.0,19.0,85,0.00,,,0.22,11.0,meteohub,2013-03-06 14:42:00,
2013-03-06 06:47:00,47.5,43.5,29.90,SW,236,10.0,16.0,86,0.00,,,0.22,14.0,meteohub,2013-03-06 14:47:00,
2013-03-06 06:52:00,47.5,43.9,29.90,SW,219,10.0,16.0,87,0.00,,,0.22,18.0,meteohub,2013-03-06 14:52:00,
2013-03-06 06:57:00,47.5,44.1,29.90,SSW,206,4.0,23.0,88,0.00,,,0.22,23.0,meteohub,2013-03-06 14:57:00,
2013-03-06 07:02:00,47.7,44.2,29.91,South,173,3.0,23.0,88,0.00,,,0.22,28.0,meteohub,2013-03-06 15:02:00,
2013-03-06 07:07:00,47.7,44.2,29.91,South,169,2.0,23.0,88,0.00,,,0.22,44.0,meteohub,2013-03-06 15:07:00,
2013-03-06 07:12:00,47.8,44.4,29.91,SW,225,14.0,17.0,88,0.00,,,0.22,60.0,meteohub,2013-03-06 15:12:00,
2013-03-06 07:17:00,48.0,44.6,29.91,SW,217,8.0,19.0,88,0.00,,,0.22,79.0,meteohub,2013-03-06 15:17:00,
2013-03-06 07:22:00,48.2,44.6,29.92,WNW,282,10.0,19.0,87,0.00,,,0.22,102.0,meteohub,2013-03-06 15:22:00,
2013-03-06 07:27:00,48.4,44.8,29.92,WSW,238,2.0,19.0,87,0.00,,,0.22,90.0,meteohub,2013-03-06 15:27:00,
2013-03-06 07:32:00,48.4,44.8,29.92,West,269,5.0,18.0,87,0.00,,,0.22,88.0,meteohub,2013-03-06 15:32:00,
2013-03-06 07:37:00,48.6,44.8,29.92,WSW,237,6.0,18.0,87,0.00,,,0.22,114.0,meteohub,2013-03-06 15:37:00,
2013-03-06 07:42:00,48.6,44.6,29.92,West,273,6.0,20.0,86,0.00,,,0.22,125.0,meteohub,2013-03-06 15:42:00,
2013-03-06 07:47:00,48.7,44.4,29.92,SW,215,7.0,20.0,85,0.00,,,0.22,155.0,meteohub,2013-03-06 15:47:00,
2013-03-06 07:52:00,48.7,44.4,29.92,SW,219,12.0,20.0,85,0.00,,,0.22,163.0,meteohub,2013-03-06 15:52:00,
2013-03-06 07:57:00,48.9,44.6,29.93,SW,233,6.0,19.0,85,0.00,,,0.22,186.0,meteohub,2013-03-06 15:57:00,
2013-03-06 08:02:00,49.1,44.8,29.93,SW,217,7.0,19.0,85,0.00,,,0.22,195.0,meteohub,2013-03-06 16:02:00,
2013-03-06 08:07:00,49.3,44.6,29.94,SW,232,13.0,18.0,84,0.00,,,0.22,206.0,meteohub,2013-03-06 16:07:00,
2013-03-06 08:12:00,49.5,44.8,29.94,WSW,238,7.0,19.0,84,0.00,,,0.22,195.0,meteohub,2013-03-06 16:12:00,
2013-03-06 08:17:00,49.5,44.6,29.94,SW,233,11.0,19.0,83,0.00,,,0.22,214.0,meteohub,2013-03-06 16:17:00,
2013-03-06 08:22:00,49.5,44.8,29.94,SW,230,6.0,19.0,84,0.00,,,0.22,246.0,meteohub,2013-03-06 16:22:00,
2013-03-06 08:27:00,49.6,45.3,29.95,SE,125,5.0,20.0,85,0.00,,,0.22,236.0,meteohub,2013-03-06 16:27:00,
2013-03-06 08:32:00,49.8,44.8,29.95,SW,232,5.0,20.0,83,0.00,,,0.22,248.0,meteohub,2013-03-06 16:32:00,
2013-03-06 08:37:00,50.0,45.7,29.95,SSW,211,6.0,16.0,85,0.00,,,0.22,244.0,meteohub,2013-03-06 16:37:00,
2013-03-06 08:42:00,50.2,45.1,29.96,WSW,240,6.0,16.0,83,0.00,,,0.22,232.0,meteohub,2013-03-06 16:42:00,
2013-03-06 08:46:00,50.5,45.5,29.96,SSE,152,6.0,16.0,83,0.00,,,0.22,462.0,meteohub,2013-03-06 16:46:00,
2013-03-06 08:51:00,51.3,45.7,29.96,WSW,253,5.0,16.0,81,0.00,,,0.22,415.0,meteohub,2013-03-06 16:51:00,
2013-03-06 08:57:00,50.9,45.0,29.96,South,175,12.0,14.0,80,0.00,,,0.22,415.0,meteohub,2013-03-06 16:57:00,
2013-03-06 09:02:00,50.7,44.1,29.96,WSW,248,11.0,17.0,78,0.00,,,0.22,432.0,meteohub,2013-03-06 17:02:00,
2013-03-06 09:07:00,50.5,43.0,29.97,SW,226,13.0,17.0,75,0.00,,,0.22,404.0,meteohub,2013-03-06 17:07:00,
2013-03-06 09:12:00,50.5,43.3,29.97,SSW,199,6.0,17.0,76,0.00,,,0.22,251.0,meteohub,2013-03-06 17:12:00,
2013-03-06 09:17:00,50.4,43.2,29.97,West,269,7.0,17.0,76,0.00,,,0.22,311.0,meteohub,2013-03-06 17:17:00,
2013-03-06 09:22:00,50.5,43.5,29.97,SW,234,8.0,17.0,77,0.00,,,0.22,350.0,meteohub,2013-03-06 17:22:00,
2013-03-06 09:27:00,50.9,43.5,29.98,SSW,213,8.0,16.0,76,0.00,,,0.22,385.0,meteohub,2013-03-06 17:27:00,
2013-03-06 09:32:00,51.1,44.4,29.98,SW,215,6.0,13.0,78,0.00,,,0.22,308.0,meteohub,2013-03-06 17:32:00,
2013-03-06 09:37:00,51.3,44.2,29.98,WSW,242,10.0,13.0,77,0.00,,,0.22,529.0,meteohub,2013-03-06 17:37:00,
2013-03-06 09:42:00,51.3,44.2,29.98,SW,227,11.0,14.0,77,0.00,,,0.22,471.0,meteohub,2013-03-06 17:42:00,
2013-03-06 09:47:00,51.6,44.6,29.98,SW,223,15.0,16.0,77,0.00,,,0.22,406.0,meteohub,2013-03-06 17:47:00,
2013-03-06 09:52:00,51.3,44.2,29.98,SW,233,13.0,18.0,77,0.00,,,0.22,596.0,meteohub,2013-03-06 17:52:00,
2013-03-06 09:57:00,51.3,43.5,29.98,SW,216,7.0,18.0,75,0.00,,,0.22,561.0,meteohub,2013-03-06 17:57:00,
2013-03-06 10:02:00,51.4,43.5,29.99,SW,225,15.0,18.0,74,0.00,,,0.22,577.0,meteohub,2013-03-06 18:02:00,
2013-03-06 10:07:00,51.3,43.9,29.99,WSW,243,8.0,19.0,76,0.00,,,0.22,403.0,meteohub,2013-03-06 18:07:00,
2013-03-06 10:12:00,51.4,44.1,29.99,WSW,238,11.0,19.0,76,0.00,,,0.22,476.0,meteohub,2013-03-06 18:12:00,
2013-03-06 10:17:00,51.3,43.9,29.99,WSW,242,3.0,19.0,76,0.00,,,0.22,343.0,meteohub,2013-03-06 18:17:00,
2013-03-06 10:22:00,51.3,43.5,29.99,WSW,248,6.0,18.0,75,0.00,,,0.22,431.0,meteohub,2013-03-06 18:22:00,
2013-03-06 10:27:00,51.3,43.3,29.99,WSW,242,9.0,18.0,74,0.00,,,0.22,487.0,meteohub,2013-03-06 18:27:00,
2013-03-06 10:32:00,51.4,43.7,30.00,West,264,3.0,18.0,75,0.00,,,0.22,422.0,meteohub,2013-03-06 18:32:00,
2013-03-06 10:37:00,52.0,43.9,30.00,SW,225,3.0,17.0,74,0.00,,,0.22,541.0,meteohub,2013-03-06 18:37:00,
2013-03-06 10:42:00,52.2,44.4,30.00,SW,227,9.0,15.0,75,0.00,,,0.22,352.0,meteohub,2013-03-06 18:42:00,
2013-03-06 10:47:00,51.6,43.3,30.00,WSW,247,12.0,12.0,73,0.00,,,0.22,508.0,meteohub,2013-03-06 18:47:00,
2013-03-06 10:52:00,51.4,43.2,30.00,SW,229,7.0,17.0,73,0.00,,,0.22,401.0,meteohub,2013-03-06 18:52:00,
2013-03-06 10:57:00,51.4,43.5,30.00,SW,229,16.0,17.0,74,0.00,,,0.22,378.0,meteohub,2013-03-06 18:57:00,
2013-03-06 11:02:00,51.8,43.3,30.00,West,267,6.0,17.0,73,0.00,,,0.22,362.0,meteohub,2013-03-06 19:02:00,
2013-03-06 11:07:00,51.6,43.3,30.00,SW,214,10.0,16.0,73,0.00,,,0.22,397.0,meteohub,2013-03-06 19:07:00,
2013-03-06 11:12:00,51.6,43.0,30.01,SW,233,8.0,16.0,72,0.00,,,0.22,387.0,meteohub,2013-03-06 19:12:00,
2013-03-06 11:17:00,51.4,42.8,30.00,WSW,245,2.0,16.0,72,0.00,,,0.22,388.0,meteohub,2013-03-06 19:17:00,
2013-03-06 11:22:00,51.3,42.6,30.00,WSW,252,4.0,16.0,72,0.00,,,0.22,383.0,meteohub,2013-03-06 19:22:00,
2013-03-06 11:27:00,51.8,43.3,30.01,SW,228,11.0,16.0,73,0.00,,,0.22,424.0,meteohub,2013-03-06 19:27:00,
2013-03-06 11:32:00,51.8,43.0,30.01,SW,223,10.0,16.0,72,0.00,,,0.22,420.0,meteohub,2013-03-06 19:32:00,
2013-03-06 11:37:00,52.0,43.9,30.00,WSW,258,3.0,16.0,74,0.00,,,0.22,466.0,meteohub,2013-03-06 19:37:00,
2013-03-06 11:42:00,52.2,44.1,30.00,SW,228,11.0,16.0,74,0.00,,,0.22,485.0,meteohub,2013-03-06 19:42:00,
2013-03-06 11:47:00,51.6,43.3,30.01,SSW,202,15.0,19.0,73,0.00,,,0.22,487.0,meteohub,2013-03-06 19:47:00,
2013-03-06 11:52:00,51.8,44.1,30.00,WSW,248,14.0,19.0,75,0.00,,,0.22,464.0,meteohub,2013-03-06 19:52:00,
2013-03-06 11:57:00,51.8,44.1,30.00,WSW,255,8.0,19.0,75,0.00,,,0.22,497.0,meteohub,2013-03-06 19:57:00,
2013-03-06 12:02:00,52.2,44.4,30.00,SSW,209,5.0,19.0,75,0.00,,,0.22,483.0,meteohub,2013-03-06 20:02:00,
2013-03-06 12:07:00,52.3,44.2,30.00,West,271,4.0,19.0,74,0.00,,,0.22,471.0,meteohub,2013-03-06 20:07:00,
2013-03-06 12:12:00,52.2,43.3,30.01,WNW,284,1.0,15.0,72,0.00,,,0.22,424.0,meteohub,2013-03-06 20:12:00,
2013-03-06 12:17:00,52.0,42.8,30.00,WSW,240,9.0,15.0,71,0.00,,,0.22,420.0,meteohub,2013-03-06 20:17:00,
2013-03-06 12:22:00,52.2,42.6,30.00,West,269,3.0,14.0,70,0.00,,,0.22,424.0,meteohub,2013-03-06 20:22:00,
2013-03-06 12:27:00,52.3,44.2,30.00,West,281,5.0,14.0,74,0.00,,,0.22,452.0,meteohub,2013-03-06 20:27:00,
2013-03-06 12:32:00,52.2,43.3,30.00,West,267,3.0,14.0,72,0.00,,,0.22,466.0,meteohub,2013-03-06 20:32:00,
2013-03-06 12:37:00,52.2,43.7,30.00,South,177,6.0,13.0,73,0.00,,,0.22,452.0,meteohub,2013-03-06 20:37:00,
2013-03-06 12:42:00,52.5,44.8,30.00,SW,225,5.0,16.0,75,0.00,,,0.22,404.0,meteohub,2013-03-06 20:42:00,
2013-03-06 12:47:00,52.2,44.1,30.00,South,172,11.0,18.0,74,0.00,,,0.22,452.0,meteohub,2013-03-06 20:47:00,
2013-03-06 12:52:00,51.6,43.5,30.00,WSW,247,12.0,19.0,74,0.00,,,0.22,443.0,meteohub,2013-03-06 20:52:00,
2013-03-06 12:57:00,51.6,44.2,30.00,SW,214,10.0,19.0,76,0.00,,,0.22,517.0,meteohub,2013-03-06 20:57:00,
2013-03-06 13:02:00,51.8,44.8,30.00,South,187,4.0,19.0,77,0.00,,,0.22,527.0,meteohub,2013-03-06 21:02:00,
2013-03-06 13:07:00,52.2,44.1,30.00,WSW,244,12.0,19.0,74,0.00,,,0.22,552.0,meteohub,2013-03-06 21:07:00,
2013-03-06 13:12:00,52.5,44.8,30.00,WSW,242,4.0,19.0,75,0.00,,,0.22,536.0,meteohub,2013-03-06 21:12:00,
2013-03-06 13:17:00,53.1,44.6,30.00,SW,221,12.0,17.0,73,0.00,,,0.22,780.0,meteohub,2013-03-06 21:17:00,
2013-03-06 13:22:00,53.4,45.0,29.99,SW,229,11.0,15.0,73,0.00,,,0.22,661.0,meteohub,2013-03-06 21:22:00,
2013-03-06 13:27:00,53.1,43.9,29.99,WSW,255,6.0,16.0,71,0.00,,,0.22,543.0,meteohub,2013-03-06 21:27:00,
2013-03-06 13:32:00,53.2,44.4,29.99,SW,234,15.0,17.0,72,0.00,,,0.22,462.0,meteohub,2013-03-06 21:32:00,
2013-03-06 13:37:00,52.5,43.7,29.99,SSW,206,7.0,17.0,72,0.00,,,0.22,436.0,meteohub,2013-03-06 21:37:00,
2013-03-06 13:42:00,52.2,44.1,29.99,WNW,283,10.0,17.0,74,0.00,,,0.22,364.0,meteohub,2013-03-06 21:42:00,
2013-03-06 13:47:00,52.0,43.5,29.99,WSW,252,6.0,19.0,73,0.00,,,0.22,380.0,meteohub,2013-03-06 21:47:00,
2013-03-06 13:52:00,52.0,43.9,29.99,WSW,256,5.0,19.0,74,0.00,,,0.22,526.0,meteohub,2013-03-06 21:52:00,
2013-03-06 13:57:00,52.3,42.8,29.99,WSW,246,7.0,16.0,70,0.00,,,0.22,461.0,meteohub,2013-03-06 21:57:00,
2013-03-06 14:02:00,52.3,44.2,29.99,SW,233,14.0,15.0,74,0.00,,,0.22,359.0,meteohub,2013-03-06 22:02:00,
2013-03-06 14:07:00,52.2,43.7,29.99,SW,216,14.0,16.0,73,0.00,,,0.22,482.0,meteohub,2013-03-06 22:07:00,
2013-03-06 14:12:00,52.5,43.7,29.98,WSW,238,6.0,18.0,72,0.00,,,0.22,643.0,meteohub,2013-03-06 22:12:00,
2013-03-06 14:17:00,52.9,43.3,29.99,WSW,250,13.0,18.0,70,0.00,,,0.22,571.0,meteohub,2013-03-06 22:17:00,
2013-03-06 14:22:00,52.7,43.2,29.99,SW,217,13.0,16.0,70,0.00,,,0.22,517.0,meteohub,2013-03-06 22:22:00,
2013-03-06 14:27:00,52.9,43.7,29.99,SW,229,6.0,15.0,71,0.00,,,0.22,561.0,meteohub,2013-03-06 22:27:00,
2013-03-06 14:32:00,53.4,43.9,29.99,SW,219,10.0,15.0,70,0.00,,,0.22,547.0,meteohub,2013-03-06 22:32:00,
2013-03-06 14:37:00,53.4,43.5,29.99,SW,220,7.0,17.0,69,0.00,,,0.22,464.0,meteohub,2013-03-06 22:37:00,
2013-03-06 14:42:00,52.9,43.0,29.98,SSW,207,5.0,17.0,69,0.00,,,0.22,338.0,meteohub,2013-03-06 22:42:00,
2013-03-06 14:47:00,53.2,43.0,29.99,WSW,239,10.0,17.0,68,0.00,,,0.22,589.0,meteohub,2013-03-06 22:47:00,
2013-03-06 14:52:00,53.1,43.9,29.99,West,273,2.0,16.0,71,0.00,,,0.22,587.0,meteohub,2013-03-06 22:52:00,
2013-03-06 14:57:00,53.2,41.7,29.99,SW,223,12.0,19.0,65,0.00,,,0.22,589.0,meteohub,2013-03-06 22:57:00,
2013-03-06 15:02:00,53.4,43.2,29.99,SSW,207,8.0,19.0,68,0.00,,,0.22,519.0,meteohub,2013-03-06 23:02:00,
2013-03-06 15:08:00,53.1,43.2,29.98,WSW,239,12.0,19.0,69,0.00,,,0.22,462.0,meteohub,2013-03-06 23:08:00,
2013-03-06 15:13:00,53.4,43.2,29.98,SW,219,12.0,16.0,68,0.00,,,0.22,434.0,meteohub,2013-03-06 23:13:00,
2013-03-06 15:18:00,52.9,43.3,29.99,SSW,195,7.0,16.0,70,0.00,,,0.22,452.0,meteohub,2013-03-06 23:18:00,
2013-03-06 15:23:00,52.9,43.3,29.99,SW,227,5.0,16.0,70,0.00,,,0.22,432.0,meteohub,2013-03-06 23:23:00,
2013-03-06 15:28:00,52.9,43.0,29.99,WSW,247,10.0,14.0,69,0.00,,,0.22,345.0,meteohub,2013-03-06 23:28:00,
2013-03-06 15:33:00,52.3,43.5,29.99,SW,215,3.0,16.0,72,0.00,,,0.22,406.0,meteohub,2013-03-06 23:33:00,
2013-03-06 15:38:00,52.5,42.6,29.99,SW,223,2.0,16.0,69,0.00,,,0.22,394.0,meteohub,2013-03-06 23:38:00,
2013-03-06 15:43:00,52.2,42.6,29.99,WSW,246,10.0,16.0,70,0.00,,,0.22,338.0,meteohub,2013-03-06 23:43:00,
2013-03-06 15:48:00,52.0,42.1,29.99,SW,232,11.0,15.0,69,0.00,,,0.22,345.0,meteohub,2013-03-06 23:48:00,
2013-03-06 15:53:00,52.0,43.2,29.99,WSW,258,3.0,15.0,72,0.00,,,0.22,520.0,meteohub,2013-03-06 23:53:00,
2013-03-06 15:58:00,52.3,43.2,29.99,West,269,3.0,16.0,71,0.00,,,0.22,360.0,meteohub,2013-03-06 23:58:00,
2013-03-06 16:03:00,52.5,42.6,29.99,WSW,239,8.0,16.0,69,0.00,,,0.22,462.0,meteohub,2013-03-07 00:03:00,
2013-03-06 16:08:00,52.9,43.0,29.99,WSW,250,8.0,16.0,69,0.00,,,0.00,364.0,meteohub,2013-03-07 00:08:00,
2013-03-06 16:13:00,52.9,43.7,29.99,WSW,241,11.0,12.0,71,0.00,,,0.00,397.0,meteohub,2013-03-07 00:13:00,
2013-03-06 16:18:00,52.3,43.5,29.99,SW,231,11.0,12.0,72,0.00,,,0.00,432.0,meteohub,2013-03-07 00:18:00,
2013-03-06 16:23:00,52.0,42.1,29.98,WSW,248,5.0,14.0,69,0.00,,,0.00,271.0,meteohub,2013-03-07 00:23:00,
2013-03-06 16:28:00,51.8,42.6,29.98,SSW,212,4.0,14.0,71,0.00,,,0.00,246.0,meteohub,2013-03-07 00:28:00,
2013-03-06 16:33:00,51.6,43.0,29.98,SW,236,7.0,14.0,72,0.00,,,0.00,257.0,meteohub,2013-03-07 00:33:00,
2013-03-06 16:38:00,51.6,42.1,29.98,SW,224,4.0,11.0,70,0.00,,,0.00,218.0,meteohub,2013-03-07 00:38:00,
2013-03-06 16:43:00,51.6,43.0,29.98,WSW,247,5.0,11.0,72,0.00,,,0.00,200.0,meteohub,2013-03-07 00:43:00,
2013-03-06 16:48:00,51.3,43.0,29.98,WSW,244,6.0,14.0,73,0.00,,,0.00,109.0,meteohub,2013-03-07 00:48:00,
2013-03-06 16:53:00,50.7,42.4,29.98,SW,218,7.0,14.0,73,0.00,,,0.00,109.0,meteohub,2013-03-07 00:53:00,
2013-03-06 16:58:00,50.5,43.0,29.98,WSW,242,5.0,14.0,75,0.00,,,0.00,141.0,meteohub,2013-03-07 00:58:00,
2013-03-06 17:03:00,50.7,43.2,29.98,South,175,1.0,14.0,75,0.00,,,0.00,118.0,meteohub,2013-03-07 01:03:00,
2013-03-06 17:08:00,50.7,42.8,29.98,West,262,3.0,11.0,74,0.00,,,0.00,130.0,meteohub,2013-03-07 01:08:00,
2013-03-06 17:13:00,50.7,43.2,29.97,WNW,290,2.0,11.0,75,0.00,,,0.00,109.0,meteohub,2013-03-07 01:13:00,
2013-03-06 17:18:00,50.7,42.8,29.97,WSW,246,2.0,7.0,74,0.00,,,0.00,93.0,meteohub,2013-03-07 01:18:00,
2013-03-06 17:23:00,50.5,43.3,29.97,SW,221,3.0,5.0,76,0.00,,,0.00,83.0,meteohub,2013-03-07 01:23:00,
2013-03-06 17:28:00,50.4,42.8,29.97,SW,236,3.0,6.0,75,0.00,,,0.00,69.0,meteohub,2013-03-07 01:28:00,
2013-03-06 17:33:00,50.2,42.6,29.97,WSW,240,3.0,6.0,75,0.00,,,0.00,65.0,meteohub,2013-03-07 01:33:00,
2013-03-06 17:38:00,50.2,43.0,29.97,WSW,242,4.0,7.0,76,0.00,,,0.00,56.0,meteohub,2013-03-07 01:38:00,
2013-03-06 17:43:00,50.0,43.2,29.97,WSW,246,3.0,7.0,77,0.00,,,0.00,42.0,meteohub,2013-03-07 01:43:00,
2013-03-06 17:48:00,49.8,43.2,29.97,SW,236,4.0,7.0,78,0.00,,,0.00,23.0,meteohub,2013-03-07 01:48:00,
2013-03-06 17:53:00,49.8,43.2,29.97,WNW,290,3.0,7.0,78,0.00,,,0.00,16.0,meteohub,2013-03-07 01:53:00,
2013-03-06 17:58:00,49.8,43.2,29.97,WSW,248,4.0,7.0,78,0.00,,,0.00,12.0,meteohub,2013-03-07 01:58:00,
2013-03-06 18:03:00,49.6,43.0,29.97,WSW,248,5.0,6.0,78,0.00,,,0.00,11.0,meteohub,2013-03-07 02:03:00,
2013-03-06 18:08:00,49.5,43.2,29.97,WSW,257,3.0,9.0,79,0.00,,,0.00,7.0,meteohub,2013-03-07 02:08:00,
2013-03-06 18:13:00,49.3,43.3,29.97,SW,227,4.0,9.0,80,0.00,,,0.00,0.0,meteohub,2013-03-07 02:13:00,
2013-03-06 18:18:00,49.3,43.7,29.97,WSW,243,4.0,10.0,81,0.00,,,0.00,0.0,meteohub,2013-03-07 02:18:00,
2013-03-06 18:23:00,49.1,43.5,29.97,WSW,258,4.0,10.0,81,0.00,,,0.00,0.0,meteohub,2013-03-07 02:23:00,
2013-03-06 18:28:00,48.9,43.3,29.97,WSW,237,4.0,10.0,81,0.00,,,0.00,0.0,meteohub,2013-03-07 02:28:00,
2013-03-06 18:33:00,48.9,43.7,29.97,WSW,242,6.0,8.0,82,0.00,,,0.00,0.0,meteohub,2013-03-07 02:33:00,
2013-03-06 18:38:00,48.7,43.5,29.96,WSW,242,3.0,7.0,82,0.00,,,0.00,0.0,meteohub,2013-03-07 02:38:00,
2013-03-06 18:43:00,48.7,43.9,29.96,West,260,1.0,7.0,83,0.00,,,0.00,0.0,meteohub,2013-03-07 02:43:00,
2013-03-06 18:49:00,48.7,43.9,29.96,SW,219,4.0,7.0,83,0.00,,,0.00,0.0,meteohub,2013-03-07 02:49:00,
2013-03-06 18:54:00,48.6,43.7,29.96,SW,234,4.0,8.0,83,0.00,,,0.00,0.0,meteohub,2013-03-07 02:54:00,
2013-03-06 18:59:00,48.6,43.9,29.96,WSW,244,2.0,8.0,84,0.00,,,0.00,0.0,meteohub,2013-03-07 02:59:00,
2013-03-06 19:04:00,48.6,43.9,29.96,WSW,244,4.0,9.0,84,0.00,,,0.00,0.0,meteohub,2013-03-07 03:04:00,
2013-03-06 19:09:00,48.4,44.1,29.96,WSW,240,1.0,9.0,85,0.00,,,0.00,0.0,meteohub,2013-03-07 03:09:00,
2013-03-06 19:14:00,48.4,43.7,29.96,WSW,244,2.0,9.0,84,0.00,,,0.00,0.0,meteohub,2013-03-07 03:14:00,
2013-03-06 19:19:00,48.4,44.1,29.96,WSW,243,2.0,9.0,85,0.00,,,0.00,0.0,meteohub,2013-03-07 03:19:00,
2013-03-06 19:24:00,48.2,43.5,29.96,WSW,242,3.0,9.0,84,0.00,,,0.00,0.0,meteohub,2013-03-07 03:24:00,
2013-03-06 19:29:00,48.0,43.3,29.96,WSW,250,3.0,9.0,84,0.00,,,0.00,0.0,meteohub,2013-03-07 03:29:00,
2013-03-06 19:34:00,48.0,43.3,29.96,WSW,239,2.0,8.0,84,0.00,,,0.00,0.0,meteohub,2013-03-07 03:34:00,
2013-03-06 19:39:00,48.0,43.7,29.96,SW,236,3.0,6.0,85,0.00,,,0.00,0.0,meteohub,2013-03-07 03:39:00,
2013-03-06 19:44:00,47.8,43.5,29.96,WSW,244,1.0,8.0,85,0.00,,,0.00,0.0,meteohub,2013-03-07 03:44:00,
2013-03-06 19:49:00,47.8,43.5,29.96,WSW,258,2.0,8.0,85,0.00,,,0.00,0.0,meteohub,2013-03-07 03:49:00,
2013-03-06 19:54:00,47.8,43.9,29.96,WSW,250,2.0,8.0,86,0.00,,,0.00,0.0,meteohub,2013-03-07 03:54:00,
2013-03-06 19:59:00,47.8,43.9,29.96,SW,229,0.0,6.0,86,0.00,,,0.00,0.0,meteohub,2013-03-07 03:59:00,
2013-03-06 20:04:00,47.8,44.2,29.96,SW,230,0.0,6.0,87,0.00,,,0.00,0.0,meteohub,2013-03-07 04:04:00,
2013-03-06 20:09:00,47.8,44.2,29.96,WSW,248,3.0,6.0,87,0.00,,,0.00,0.0,meteohub,2013-03-07 04:09:00,
2013-03-06 20:14:00,47.8,44.2,29.96,WSW,253,0.0,4.0,87,0.00,,,0.00,0.0,meteohub,2013-03-07 04:14:00,
2013-03-06 20:19:00,47.8,44.2,29.96,West,270,0.0,4.0,87,0.00,,,0.00,0.0,meteohub,2013-03-07 04:19:00,
2013-03-06 20:24:00,47.7,44.2,29.96,West,269,1.0,4.0,88,0.00,,,0.00,0.0,meteohub,2013-03-07 04:24:00,
2013-03-06 20:29:00,47.7,44.2,29.96,West,274,1.0,4.0,88,0.00,,,0.00,0.0,meteohub,2013-03-07 04:29:00,
2013-03-06 20:34:00,47.5,44.4,29.96,WSW,254,0.0,4.0,89,0.00,,,0.00,0.0,meteohub,2013-03-07 04:34:00,
2013-03-06 20:39:00,47.5,44.8,29.96,WSW,258,1.0,4.0,90,0.00,,,0.00,0.0,meteohub,2013-03-07 04:39:00,
2013-03-06 20:44:00,47.5,44.8,29.96,West,281,3.0,5.0,90,0.00,,,0.00,0.0,meteohub,2013-03-07 04:44:00,
2013-03-06 20:49:00,47.3,44.6,29.96,West,261,0.0,5.0,90,0.00,,,0.00,0.0,meteohub,2013-03-07 04:49:00,
2013-03-06 20:54:00,47.1,44.1,29.96,WNW,286,4.0,5.0,89,0.00,,,0.00,0.0,meteohub,2013-03-07 04:54:00,
2013-03-06 20:59:00,47.1,44.1,29.96,West,264,0.0,5.0,89,0.00,,,0.00,0.0,meteohub,2013-03-07 04:59:00,
2013-03-06 21:00:00,47.1,44.1,29.96,West,271,3.0,5.0,89,0.00,,,0.00,0.0,meteohub,2013-03-07 05:00:00,
2013-03-06 21:01:00,47.1,44.1,29.96,WNW,288,3.0,5.0,89,0.00,,,0.00,0.0,meteohub,2013-03-07 05:01:00,
2013-03-06 21:06:00,46.9,43.9,29.95,West,264,3.0,6.0,89,0.00,,,0.00,0.0,meteohub,2013-03-07 05:06:00,
2013-03-06 21:11:00,46.9,43.9,29.95,WNW,285,4.0,6.0,89,0.00,,,0.00,0.0,meteohub,2013-03-07 05:11:00,
2013-03-06 21:16:00,46.9,44.2,29.95,WNW,291,2.0,6.0,90,0.00,,,0.00,0.0,meteohub,2013-03-07 05:16:00,
2013-03-06 21:21:00,46.8,43.7,29.95,West,261,4.0,5.0,89,0.00,,,0.00,0.0,meteohub,2013-03-07 05:21:00,
2013-03-06 21:26:00,46.8,43.7,29.95,WSW,246,3.0,5.0,89,0.00,,,0.00,0.0,meteohub,2013-03-07 05:26:00,
2013-03-06 21:31:00,46.8,43.7,29.95,WSW,257,1.0,5.0,89,0.00,,,0.00,0.0,meteohub,2013-03-07 05:31:00,
2013-03-06 21:36:00,46.8,43.7,29.95,WSW,241,0.0,5.0,89,0.00,,,0.00,0.0,meteohub,2013-03-07 05:36:00,
2013-03-06 21:41:00,46.8,43.7,29.95,WSW,247,2.0,5.0,89,0.00,,,0.00,0.0,meteohub,2013-03-07 05:41:00,
2013-03-06 21:46:00,46.8,43.7,29.95,WSW,255,1.0,5.0,89,0.00,,,0.00,0.0,meteohub,2013-03-07 05:46:00,
2013-03-06 21:51:00,46.8,43.3,29.95,West,269,2.0,5.0,88,0.00,,,0.00,0.0,meteohub,2013-03-07 05:51:00,
2013-03-06 21:56:00,46.8,43.3,29.95,West,276,1.0,4.0,88,0.00,,,0.00,0.0,meteohub,2013-03-07 05:56:00,
2013-03-06 22:01:00,46.8,43.2,29.95,WNW,282,0.0,4.0,87,0.00,,,0.00,0.0,meteohub,2013-03-07 06:01:00,
2013-03-06 22:06:00,46.9,43.3,29.95,WNW,282,0.0,4.0,87,0.00,,,0.00,0.0,meteohub,2013-03-07 06:06:00,
2013-03-06 22:11:00,46.8,42.8,29.95,WNW,282,0.0,4.0,86,0.00,,,0.00,0.0,meteohub,2013-03-07 06:11:00,
2013-03-06 22:16:00,46.4,42.8,29.95,WNW,282,0.0,4.0,87,0.00,,,0.00,0.0,meteohub,2013-03-07 06:16:00,
2013-03-06 22:21:00,46.2,42.6,29.95,NNE,22,2.0,2.0,87,0.00,,,0.00,0.0,meteohub,2013-03-07 06:21:00,
2013-03-06 22:26:00,46.2,42.6,29.94,NE,35,0.0,3.0,87,0.00,,,0.00,0.0,meteohub,2013-03-07 06:26:00,
2013-03-06 22:31:00,46.4,42.8,29.94,NE,35,0.0,3.0,87,0.00,,,0.00,0.0,meteohub,2013-03-07 06:31:00,
2013-03-06 22:36:00,46.6,42.6,29.94,NE,35,0.0,2.0,86,0.00,,,0.00,0.0,meteohub,2013-03-07 06:36:00,
2013-03-06 22:41:00,46.2,42.6,29.94,NE,35,0.0,1.0,87,0.00,,,0.00,0.0,meteohub,2013-03-07 06:41:00,
2013-03-06 22:46:00,46.0,42.4,29.94,NNE,30,1.0,2.0,87,0.00,,,0.00,0.0,meteohub,2013-03-07 06:46:00,
2013-03-06 22:51:00,46.0,42.4,29.94,NNE,30,0.0,2.0,87,0.00,,,0.00,0.0,meteohub,2013-03-07 06:51:00,
2013-03-06 22:56:00,46.0,42.6,29.94,NNE,30,0.0,2.0,88,0.00,,,0.00,0.0,meteohub,2013-03-07 06:56:00,
2013-03-06 23:01:00,46.4,42.8,29.94,NNE,30,0.0,2.0,87,0.00,,,0.00,0.0,meteohub,2013-03-07 07:01:00,
2013-03-06 23:06:00,46.2,42.3,29.93,NNE,30,0.0,0.0,86,0.00,,,0.00,0.0,meteohub,2013-03-07 07:06:00,
2013-03-06 23:11:00,46.2,42.6,29.94,NNE,30,0.0,0.0,87,0.00,,,0.00,0.0,meteohub,2013-03-07 07:11:00,
2013-03-06 23:16:00,46.2,42.3,29.94,NNE,29,0.0,0.0,86,0.00,,,0.00,0.0,meteohub,2013-03-07 07:16:00,
2013-03-06 23:21:00,45.9,41.9,29.94,NNE,29,0.0,0.0,86,0.00,,,0.00,0.0,meteohub,2013-03-07 07:21:00,
2013-03-06 23:26:00,45.3,41.7,29.94,NNE,29,0.0,0.0,87,0.00,,,0.00,0.0,meteohub,2013-03-07 07:26:00,
2013-03-06 23:31:00,45.3,41.9,29.94,NNE,30,0.0,0.0,88,0.00,,,0.00,0.0,meteohub,2013-03-07 07:31:00,
2013-03-06 23:36:00,45.7,42.6,29.94,NNE,30,1.0,0.0,89,0.00,,,0.00,0.0,meteohub,2013-03-07 07:36:00,
2013-03-06 23:41:00,46.0,42.4,29.93,North,5,1.0,1.0,87,0.00,,,0.00,0.0,meteohub,2013-03-07 07:41:00,
2013-03-06 23:46:00,46.2,41.9,29.93,North,0,1.0,2.0,85,0.00,,,0.00,0.0,meteohub,2013-03-07 07:46:00,
2013-03-06 23:51:00,46.6,42.3,29.93,North,0,0.0,2.0,85,0.00,,,0.00,0.0,meteohub,2013-03-07 07:51:00,
2013-03-06 23:56:00,46.4,41.9,29.93,North,0,0.0,2.0,84,0.00,,,0.00,0.0,meteohub,2013-03-07 07:56:00,